Powrót do katalogu

THORAD AGENA D DEB

AktywnySSO
NORAD 14478·DEBRIS·🇺🇸 United States

Wystrzelony Apr 8, 1970 z Vandenberg Space Force Base

Loading…

Następne Przeloty (najbliższe 24 godziny)

TLE

ŚwieżeSource: Space-Track

Epoka: Sep 13, 2026, 21:26 UTC

1 14478U 70025NW  26256.89368543  .00006099  00000-0  19175-1 0  9993
2 14478 100.9035  63.0075 0495293 226.0040 129.9200 12.69138198620369

Śledź THORAD AGENA D DEB w czasie rzeczywistym z AllMySat

Download on the App Store